Hourly Data Report for December 24, 2004

TORONTO CITY
ONTARIO

43°40'00.000" N
79°24'00.000" W
112.50 m
6158355
71508
XTO

Download Data

Hourly Data (December 2004)
Hourly Data Report for December 24, 2004
TIME
LST
Temp Definition
°C
Dew Point Definition
°C
Rel Hum Definition
%
Precip. Amount Definition
mm

Wind Dir Definition
10's deg

Wind Spd Definition
km/h
Visibility Definition
km
Stn Press Definition
kPa
Hmdx Definition


Wind Chill Definition


Weather Definition


00:00 -7.9 -11.3 77   LegendMM LegendMM LegendMM 100.54     LegendNANA
01:00 -8.2 -11.3 78   LegendMM LegendMM LegendMM 100.59     LegendNANA
02:00 -8.4 -11.6 78   LegendMM LegendMM LegendMM 100.58     LegendNANA
03:00 -8.6 -11.6 79   LegendMM LegendMM LegendMM 100.65     LegendNANA
04:00 -9.0 -11.4 83   LegendMM LegendMM LegendMM 100.71     LegendNANA
05:00 -9.8 -12.1 83   LegendMM LegendMM LegendMM 100.73     LegendNANA
06:00 -10.2 -12.5 83   LegendMM LegendMM LegendMM 100.79     LegendNANA
07:00 -10.0 -12.6 81   LegendMM LegendMM LegendMM 100.87     LegendNANA
08:00 -10.5 -13.0 82   LegendMM LegendMM LegendMM 100.84     LegendNANA
09:00 -9.7 -12.2 82   LegendMM LegendMM LegendMM 100.86     LegendNANA
10:00 -8.3 -12.0 75   LegendMM LegendMM LegendMM 100.85     LegendNANA
11:00 -7.3 -11.9 70   LegendMM LegendMM LegendMM 100.81     LegendNANA
12:00 -6.7 -12.5 63   LegendMM LegendMM LegendMM 100.73     LegendNANA
13:00 -6.4 -12.8 60   LegendMM LegendMM LegendMM 100.64     LegendNANA
14:00 -6.6 -12.9 61   LegendMM LegendMM LegendMM 100.61     LegendNANA
15:00 -7.0 -13.9 58   LegendMM LegendMM LegendMM 100.58     LegendNANA
16:00 -7.5 -13.9 60   LegendMM LegendMM LegendMM 100.61     LegendNANA
17:00 -8.4 -14.5 61   LegendMM LegendMM LegendMM 100.64     LegendNANA
18:00 -9.0 -14.7 63   LegendMM LegendMM LegendMM 100.67     LegendNANA
19:00 -9.6 -14.8 66   LegendMM LegendMM LegendMM 100.70     LegendNANA
20:00 -10.2 -14.9 68   LegendMM LegendMM LegendMM 100.70     LegendNANA
21:00 -10.8 -15.3 69   LegendMM LegendMM LegendMM 100.73     LegendNANA
22:00 -11.3 -15.7 70   LegendMM LegendMM LegendMM 100.77     LegendNANA
23:00 -11.8 -15.9 72   LegendMM LegendMM LegendMM 100.81     LegendNANA

Notes on Data Quality.

Legend

  • E = Estimated
  • M = Missing
  • NA = Not Available*
  • [empty] = Indicates an unobserved value
Date modified: